Regional Weather Roundup
Issued by NWS Sioux Falls, SD

Home | Current Version | Previous Version | Text Only | Print | Product List | Glossary On
Versions: 1 2 3 4 5 6 7 8 9 10 11 12 13 14 15 16 17 18 19 20 21 22 23 24 25 26 27 28 29 30 31 32 33 34 35 36 37 38 39 40 41 42 43 44 45 46 47 48 49 50
000
ASUS43 KFSD 201102
RWRFSD

WEATHER ROUNDUP FOR SE SOUTH DAKOTA/SW MINNESOTA/NW IOWA
NATIONAL WEATHER SERVICE SIOUX FALLS SD
600 AM CDT SUN APR 20 2014

NOTE: "FAIR" INDICATES FEW OR NO CLOUDS BELOW 12,000 FEET WITH NO
SIGNIFICANT WEATHER AND OR OBSTRUCTIONS TO VISIBILITY.


SDZ038>040-050-052>070-201200-
SOUTHEAST SOUTH DAKOTA

CITY           SKY/WX    TMP DP  RH WIND       PRES   REMARKS
CHAMBERLAIN      N/A     43  35  73 S3        30.00F
HURON          CLEAR     33  28  81 E5        30.01S WCI  29
MADISON        FAIR      36  27  69 N7        30.01F
MITCHELL       CLEAR     36  28  73 CALM      30.01S
SIOUX FALLS    CLOUDY    51  40  65 N7        30.00S
WINNER         FAIR      41  22  46 S6        29.99F
YANKTON        CLEAR     50  36  57 N7        29.98S
$$

MNZ071-072-080-081-089-090-097-098-201200-
SOUTHWEST MINNESOTA

CITY           SKY/WX    TMP DP  RH WIND       PRES   REMARKS
FAIRMONT       CLOUDY    48  45  87 N3        30.02S
JACKSON        MOCLDY    48  43  81 NE5       30.00F
LUVERNE        MOCLDY    54  41  62 N5        30.00S
MARSHALL       PTCLDY    39  30  70 W6        30.03S
MONTEVIDEO     CLEAR     39  34  81 NW5       30.04R
PIPESTONE      MOCLDY    46  39  76 NE5       30.01S
REDWOOD FALLS  MOCLDY    45  43  93 CALM      30.02R
TRACY          MOCLDY    50  42  73 CALM      30.02S
WINDOM         MOCLDY    50  37  62 NE5       30.02S
WORTHINGTON    MOCLDY    50  36  57 NE7       30.02F
$$

IAZ001>003-012>014-020>022-031-032-NEZ013-014-SDZ071-201200-
NORTHWEST IOWA

CITY           SKY/WX    TMP DP  RH WIND       PRES   REMARKS
CHEROKEE       MOCLDY    55  49  79 S3        29.97S
DENISON        PTCLDY    61  45  55 SW8G15    29.97S
ESTHERVILLE    MOCLDY    47  45  93 NE5       30.00S
SHELDON        MOCLDY    50  37  62 NE12      29.97F
SIOUX CITY     MOCLDY    57  46  66 SE8       29.96S
SPENCER        MOCLDY    51  44  77 NE7       29.99S
STORM LAKE     MOCLDY    57  45  62 SW7       29.99S
$$

ABBREVIATIONS USED IN REMARKS
   TC - TEMPERATURE IN CELSIUS
  WCI - WIND CHILL INDEX
   HX - HEAT INDEX
  VSB - VISIBILITY




USA.gov is the U.S. government's official web portal to all federal, state and local government web resources and services.